EW1895 Weather Reports


Display with metric or nautical units.
time (UTC)temp
F
wind
direction
speed
MPH
gust
MPH
rain 1hr
in
rain 24hr
in
rain mn
in
humidity
%
barometer
mb
20260508081550 46 142 0.0 0.0 0.00 0.00 0.00 96 1014.6
20260508080044 47 142 0.0 0.0 0.00 0.00 0.00 96 1014.6
20260508074544 47 142 0.0 0.0 0.00 0.00 0.00 96 1014.4
20260508073048 47 142 0.0 0.0 0.00 0.00 0.00 96 1014.3
20260508071545 47 142 0.0 0.0 0.00 0.00 0.00 96 1014.2
20260508070043 46 142 0.0 0.0 0.00 0.00 0.00 96 1014.0
20260508064542 46 142 0.0 0.0 0.00 0.00 0.00 96 1014.1
20260508063041 46 142 0.0 0.0 0.00 0.00 0.00 96 1013.9
20260508061538 46 142 0.0 0.0 0.00 0.00 0.00 95 1013.6
20260508060034 46 142 0.0 0.0 0.00 0.00 0.00 96 1013.4
20260508054534 46 142 0.0 0.0 0.00 0.00 0.00 95 1013.3
20260508053033 46 142 0.0 0.0 0.00 0.00 0.00 95 1013.3
20260508051535 47 142 0.0 0.0 0.00 0.00 0.00 95 1013.3
20260508050033 47 142 0.0 0.0 0.00 0.00 0.00 95 1013.2
20260508044530 47 142 0.0 0.0 0.00 0.00 0.00 95 1013.2
20260508043028 47 142 0.0 0.0 0.00 0.00 0.00 95 1013.0
20260508041526 47 142 0.0 0.0 0.00 0.00 0.00 95 1013.1
20260508040025 47 142 0.0 0.0 0.00 0.00 0.00 95 1012.9
20260508034529 47 142 0.0 0.0 0.00 0.00 0.00 95 1012.9
20260508033022 47 142 0.0 0.0 0.00 0.00 0.00 94 1012.7
20260508031525 47 142 0.0 0.0 0.00 0.00 0.00 94 1012.8
20260508030021 48 142 0.0 0.0 0.00 0.00 0.00 94 1012.7
20260508024520 48 142 0.0 0.0 0.00 0.00 0.00 94 1012.7
20260508023019 48 142 0.0 0.0 0.00 0.00 0.00 93 1012.6
20260508021515 48 142 0.0 0.0 0.00 0.00 0.00 93 1012.5
20260508020019 49 142 0.0 0.0 0.00 0.00 0.00 92 1012.4
20260508014512 49 142 0.0 0.0 0.00 0.00 0.00 92 1012.2
20260508013009 50 142 0.0 0.0 0.00 0.00 0.00 92 1012.0
20260508011506 51 142 0.0 0.0 0.00 0.00 0.00 91 1012.1
20260508010002 51 142 0.0 0.0 0.00 0.00 0.00 91 1011.9
20260508004601 52 142 0.0 0.0 0.00 0.00 0.00 91 1011.8
20260508003056 53 142 0.0 0.0 0.00 0.00 0.00 90 1011.8
20260508001556 53 142 0.0 0.0 0.00 0.00 0.00 90 1011.5
20260508000052 54 142 0.0 0.0 0.00 0.00 0.00 90 1011.4
20260507234554 54 142 0.0 0.0 0.00 0.00 0.00 89 1011.1
20260507233048 54 142 0.0 0.0 0.00 0.00 0.00 88 1011.1
20260507231550 55 142 0.0 0.0 0.00 0.00 0.00 88 1010.7
20260507230044 55 184 0.0 0.0 0.00 0.00 0.00 89 1010.5
20260507224542 55 184 0.0 0.0 0.00 0.00 0.00 87 1010.5
20260507223039 56 184 0.0 0.0 0.00 0.00 0.00 86 1010.4
20260507221539 56 209 0.0 0.0 0.00 0.00 0.00 86 1010.4
20260507220038 56 209 0.0 1.0 0.00 0.00 0.00 86 1010.3
20260507214537 56 209 0.0 0.0 0.00 0.00 0.00 85 1010.5
20260507213044 56 208 0.0 0.0 0.00 0.00 0.00 87 1010.4
20260507211537 56 208 0.0 0.0 0.00 0.00 0.00 88 1010.2
20260507210037 55 208 0.0 1.0 0.00 0.00 0.00 88 1010.1
20260507204537 54 144 0.0 0.0 0.00 0.00 0.00 89 1010.7
20260507203038 54 144 0.0 0.0 0.00 0.00 0.00 87 1010.8
20260507201538 54 144 0.0 0.0 0.00 0.00 0.00 88 1010.7
20260507200034 54 144 0.0 0.0 0.00 0.00 0.00 87 1010.9
20260507194535 54 144 0.0 0.0 0.00 0.00 0.00 84 1011.0
20260507193034 55 144 0.0 0.0 0.00 0.00 0.00 84 1010.7
20260507191534 55 144 0.0 0.0 0.00 0.00 0.00 78 1011.3
20260507190036 55 140 0.0 3.0 0.00 0.00 0.00 76 1011.1
20260507184533 56 282 0.0 0.0 0.00 0.00 0.00 75 1011.2
20260507183039 56 280 0.0 0.0 0.00 0.00 0.00 71 1011.3
20260507181534 56 279 0.0 1.0 0.00 0.00 0.00 69 1011.4
20260507180032 56 355 0.0 0.0 0.00 0.00 0.00 69 1011.4
20260507174530 56 345 0.0 3.0 0.00 0.00 0.00 77 1011.6
20260507173040 56 31 0.0 7.0 0.00 0.00 0.00 81 1011.7
20260507171529 56 81 0.0 0.0 0.00 0.00 0.00 83 1011.8
20260507170028 55 80 0.0 3.0 0.00 0.00 0.00 81 1012.0
20260507164528 56 155 0.0 0.0 0.00 0.00 0.00 87 1012.1
20260507163027 55 137 0.0 1.0 0.00 0.00 0.00 87 1012.2
20260507161527 55 9 0.0 0.0 0.00 0.00 0.00 89 1012.3
20260507160027 54 48 0.0 0.0 0.00 0.00 0.00 90 1012.6
20260507154529 54 98 0.0 0.0 0.00 0.00 0.00 88 1012.7
20260507153026 54 98 0.0 0.0 0.00 0.00 0.00 88 1012.8
20260507151528 54 309 0.0 2.0 0.00 0.00 0.00 89 1012.6
20260507150024 54 328 0.0 1.0 0.00 0.00 0.00 89 1012.5
20260507144524 55 335 0.0 3.0 0.00 0.00 0.00 87 1012.8
20260507143022 56 340 0.0 4.0 0.00 0.00 0.00 85 1012.5
20260507141523 56 343 0.0 2.0 0.00 0.00 0.00 87 1012.7
20260507140022 56 319 0.0 3.0 0.00 0.00 0.00 87 1012.9
20260507134522 56 319 0.0 3.0 0.00 0.00 0.00 87 1012.8
20260507133021 56 300 0.0 2.0 0.00 0.00 0.00 87 1012.7
20260507131521 56 355 0.0 2.0 0.00 0.00 0.00 87 1012.4
20260507130019 56 137 0.0 3.0 0.00 0.00 0.00 86 1012.3
20260507124522 56 232 0.0 4.0 0.00 0.00 0.00 86 1012.6
20260507123017 56 138 0.0 5.0 0.00 0.00 0.00 87 1012.2
20260507121516 55 204 0.0 1.0 0.00 0.00 0.00 88 1012.3
20260507120015 55 341 0.0 2.0 0.00 0.00 0.00 88 1012.2
20260507114515 55 103 0.0 2.0 0.00 0.00 0.00 88 1012.3
20260507113014 55 296 0.0 2.0 0.00 0.00 0.00 87 1012.2
20260507111517 55 278 0.0 4.0 0.00 0.00 0.00 88 1011.7
20260507110011 55 49 0.0 0.0 0.00 0.00 0.00 87 1011.8
20260507104521 55 345 0.0 0.0 0.00 0.00 0.00 87 1011.7
20260507103008 55 22 0.0 0.0 0.00 0.00 0.00 86 1011.7
20260507101507 55 350 0.0 5.0 0.00 0.00 0.00 86 1011.1
20260507100007 55 340 0.0 5.0 0.00 0.00 0.00 86 1011.3
20260507094505 56 329 0.0 3.0 0.00 0.00 0.00 87 1011.7
20260507093005 56 335 1.0 6.0 0.00 0.00 0.00 87 1011.7
20260507091502 56 329 0.0 3.0 0.00 0.00 0.00 89 1011.6
20260507090100 56 319 0.0 3.0 0.00 0.00 0.00 89 1011.3
20260507084557 57 319 0.0 4.0 0.00 0.00 0.00 89 1011.4
20260507083055 57 34 0.0 2.0 0.00 0.00 0.00 89 1011.3